Date String (YYYY-MM-DD hh:mm:ss) UTC,Instrument flags,absolute air pressure of the measurement (hPa),sample flow rate (lpm),inlet stack bypass flow (lpm),air temperature of the measurement (°C),ambient temperature measured by the external sensor (°C),aerosol sample conditioner tube jacket temperature (°C),OPC LED temperature (°C),internal box temperature (°C),relative humidity of the measurement (%),span deviation,mass concentration of particles derived from Lorenz-Mie calculation of OPC scattering (μg/m³),mass concentration of particles derived from Lorenz-Mie calculation of OPC scattering (μg/m³),mass concentration of particles derived from Lorenz-Mie calculation of OPC scattering (μg/m³)
DateTimeUTC,F1_M11,P_M11,Q1_M11,Q2_M11,T1_M11,T2_M11,T3_M11,T4_M11,T5_M11,U1_M11,ZSPAN_M11,X0_M11,X2_M11,X1_M11
2023-10-29 07:00:00,SystemResetWarning,0835.2,5.01,000.00,021.8,020.7,000.0,030.1,023.3,13.4,0000.0,0007.44,0005.44,0005.28
2023-10-29 07:01:00,SystemResetWarning,0834.9,5.01,000.00,021.8,020.6,000.0,030.1,023.3,13.4,0000.0,0007.39,0005.40,0005.24
2023-10-29 07:02:00,SystemResetWarning,0835.4,5.00,000.00,021.8,020.6,000.0,030.1,023.3,13.4,0000.0,0007.36,0005.37,0005.21
2023-10-29 07:03:00,SystemResetWarning,0835.3,5.00,000.00,021.8,020.5,000.0,030.2,023.2,13.4,0000.0,0007.31,0005.34,0005.19
2023-10-29 07:04:00,SystemResetWarning,0834.8,5.00,000.00,021.8,020.4,000.0,030.1,023.2,13.4,0000.0,0007.31,0005.32,0005.16
2023-10-29 07:05:00,SystemResetWarning,0834.8,5.00,000.00,021.7,020.4,000.0,030.1,023.2,13.4,0000.0,0007.23,0005.30,0005.14
2023-10-29 07:06:00,SystemResetWarning,0834.8,5.00,000.00,021.7,020.4,000.0,030.1,023.2,13.5,0000.0,0007.17,0005.28,0005.13
2023-10-29 07:07:00,SystemResetWarning,0835.3,5.00,000.00,021.7,020.3,000.0,030.1,023.2,13.5,0000.0,0007.15,0005.26,0005.11
2023-10-29 07:08:00,SystemResetWarning,0834.9,4.99,000.00,021.7,020.3,000.0,030.1,023.2,13.5,0000.0,0007.14,0005.25,0005.10
2023-10-29 07:09:00,SystemResetWarning,0835.0,5.01,000.00,021.7,020.3,000.0,030.1,023.2,13.5,0000.0,0007.09,0005.23,0005.09
2023-10-29 07:10:00,SystemResetWarning,0835.0,5.00,000.00,021.7,020.3,000.0,030.1,023.2,13.5,0000.0,0007.09,0005.22,0005.08
2023-10-29 07:11:00,SystemResetWarning,0834.9,5.01,000.00,021.7,020.3,000.0,030.1,023.1,13.5,0000.0,0007.07,0005.21,0005.08
2023-10-29 07:12:00,SystemResetWarning,0835.3,5.00,000.00,021.7,020.3,000.0,030.1,023.1,13.5,0000.0,0007.00,0005.20,0005.08
2023-10-29 07:13:00,SystemResetWarning,0835.4,5.00,000.00,021.7,020.2,000.0,030.1,023.1,13.5,0000.0,0007.08,0005.22,0005.09
2023-10-29 07:14:00,SystemResetWarning,0835.4,4.99,000.00,021.6,020.2,000.0,030.1,023.1,13.5,0000.0,0007.19,0005.24,0005.10
2023-10-29 07:15:00,SystemResetWarning,0835.0,5.00,000.00,021.6,020.2,000.0,030.1,023.1,13.5,0000.0,0007.17,0005.24,0005.10
2023-10-29 07:16:00,SystemResetWarning,0835.0,4.99,000.00,021.6,020.2,000.0,030.0,023.1,13.5,0000.0,0007.15,0005.24,0005.11
2023-10-29 07:17:00,SystemResetWarning,0835.0,5.00,000.00,021.6,020.2,000.0,030.0,023.1,13.5,0000.0,0007.18,0005.25,0005.12
2023-10-29 07:18:00,SystemResetWarning,0835.0,5.01,000.00,021.7,020.5,000.0,030.0,023.4,13.5,0000.0,0007.23,0005.28,0005.15
2023-10-29 07:19:00,SystemResetWarning,0835.0,5.00,000.00,021.8,021.3,000.0,029.9,023.7,13.5,0000.0,0007.21,0005.27,0005.16
2023-10-29 07:20:00,SystemResetWarning,0834.9,4.99,000.00,021.9,021.7,000.0,030.0,023.7,13.4,0000.0,0007.24,0005.28,0005.17
2023-10-29 07:21:00,SystemResetWarning,0834.9,4.99,000.00,021.9,021.6,000.0,030.0,023.7,13.4,0000.0,0007.25,0005.30,0005.19
2023-10-29 07:22:00,SystemResetWarning,0834.8,5.00,000.00,021.9,021.4,000.0,030.1,023.6,13.4,0000.0,0007.22,0005.30,0005.20
2023-10-29 07:23:00,SystemResetWarning,0834.9,5.01,000.00,021.9,021.3,000.0,030.1,023.5,13.4,0000.0,0007.25,0005.32,0005.21
2023-10-29 07:24:00,SystemResetWarning,0834.9,5.00,000.00,021.9,021.1,000.0,030.1,023.4,13.4,0000.0,0007.21,0005.32,0005.22
2023-10-29 07:25:00,SystemResetWarning,0835.0,5.00,000.00,021.9,021.0,000.0,030.1,023.4,13.4,0000.0,0007.23,0005.34,0005.25
2023-10-29 07:26:00,SystemResetWarning,0835.0,5.00,000.00,021.9,020.9,000.0,030.1,023.4,13.5,0000.0,0007.41,0005.41,0005.29
2023-10-29 07:27:00,SystemResetWarning,0835.0,5.00,000.00,021.8,020.8,000.0,030.2,023.3,13.5,0000.0,0007.45,0005.46,0005.33
2023-10-29 07:28:00,SystemResetWarning,0835.0,5.00,000.00,021.8,020.7,000.0,030.2,023.3,13.5,0000.0,0007.47,0005.49,0005.36
2023-10-29 07:29:00,SystemResetWarning,0835.0,5.00,000.00,021.8,020.6,000.0,030.2,023.3,13.5,0000.0,0007.50,0005.52,0005.39
2023-10-29 07:30:00,SystemResetWarning,0835.0,5.00,000.00,021.8,020.5,000.0,030.2,023.3,13.5,0000.0,0007.52,0005.55,0005.42
2023-10-29 07:31:00,SystemResetWarning,0835.0,4.99,000.00,021.8,020.5,000.0,030.2,023.3,13.5,0000.0,0007.54,0005.58,0005.45
2023-10-29 07:32:00,SystemResetWarning,0835.0,5.01,000.00,021.8,020.4,000.0,030.2,023.2,13.6,0000.0,0007.54,0005.59,0005.47
2023-10-29 07:33:00,SystemResetWarning,0835.0,5.01,000.00,021.7,020.4,000.0,030.1,023.2,13.6,0000.0,0007.56,0005.61,0005.49
2023-10-29 07:34:00,SystemResetWarning,0835.0,5.01,000.00,021.7,020.4,000.0,030.1,023.2,13.6,0000.0,0007.61,0005.64,0005.51
2023-10-29 07:35:00,SystemResetWarning,0835.0,5.00,000.00,021.7,020.3,000.0,030.1,023.2,13.6,0000.0,0007.64,0005.66,0005.53
2023-10-29 07:36:00,SystemResetWarning,0835.0,5.00,000.00,021.7,020.3,000.0,030.1,023.2,13.6,0000.0,0007.63,0005.67,0005.54
2023-10-29 07:37:00,SystemResetWarning,0835.0,5.00,000.00,021.7,020.3,000.0,030.1,023.2,13.6,0000.0,0007.56,0005.66,0005.54
2023-10-29 07:38:00,SystemResetWarning,0834.9,5.00,000.00,021.7,020.3,000.0,030.1,023.1,13.6,0000.0,0007.58,0005.67,0005.55
2023-10-29 07:39:00,SystemResetWarning,0834.9,5.00,000.00,021.7,020.3,000.0,030.1,023.1,13.6,0000.0,0007.62,0005.68,0005.55
2023-10-29 07:40:00,SystemResetWarning,0835.2,5.00,000.00,021.7,020.2,000.0,030.1,023.1,13.6,0000.0,0007.64,0005.70,0005.57
2023-10-29 07:41:00,SystemResetWarning,0835.2,4.99,000.00,021.6,020.2,000.0,030.1,023.1,13.6,0000.0,0007.66,0005.71,0005.57
2023-10-29 07:42:00,SystemResetWarning,0834.9,5.01,000.00,021.6,020.2,000.0,030.1,023.1,13.6,0000.0,0007.71,0005.74,0005.59
2023-10-29 07:43:00,SystemResetWarning,0834.9,5.01,000.00,021.7,020.4,000.0,030.0,023.3,13.6,0000.0,0007.75,0005.77,0005.61
2023-10-29 07:44:00,SystemResetWarning,0835.0,5.00,000.00,021.8,021.2,000.0,029.9,023.6,13.5,0000.0,0007.77,0005.80,0005.63
2023-10-29 07:45:00,SystemResetWarning,0835.1,4.99,000.00,021.9,021.6,000.0,030.0,023.7,13.5,0000.0,0007.75,0005.80,0005.64
2023-10-29 07:46:00,SystemResetWarning,0835.1,4.99,000.00,021.9,021.5,000.0,030.0,023.6,13.4,0000.0,0007.71,0005.79,0005.65
2023-10-29 07:47:00,SystemResetWarning,0835.1,5.01,000.00,021.9,021.3,000.0,030.1,023.5,13.4,0000.0,0007.73,0005.80,0005.66
2023-10-29 07:48:00,SystemResetWarning,0835.0,5.01,000.00,021.9,021.2,000.0,030.1,023.4,13.4,0000.0,0007.70,0005.80,0005.67
2023-10-29 07:49:00,SystemResetWarning,0835.0,5.00,000.00,021.8,021.0,000.0,030.1,023.4,13.4,0000.0,0007.67,0005.79,0005.67
2023-10-29 07:50:00,SystemResetWarning,0835.0,5.00,000.00,021.8,020.9,000.0,030.1,023.3,13.4,0000.0,0007.65,0005.78,0005.67
2023-10-29 07:51:00,SystemResetWarning,0835.0,5.00,000.00,021.8,020.8,000.0,030.1,023.3,13.4,0000.0,0007.67,0005.79,0005.68
2023-10-29 07:52:00,SystemResetWarning,0835.1,4.99,000.00,021.8,020.7,000.0,030.1,023.3,13.4,0000.0,0007.69,0005.80,0005.67
2023-10-29 07:53:00,SystemResetWarning,0835.1,4.99,000.00,021.8,020.6,000.0,030.1,023.3,13.4,0000.0,0007.65,0005.78,0005.67
2023-10-29 07:54:00,SystemResetWarning,0835.1,5.00,000.00,021.8,020.5,000.0,030.1,023.2,13.4,0000.0,0007.63,0005.77,0005.66
2023-10-29 07:55:00,SystemResetWarning,0835.1,5.01,000.00,021.8,020.5,000.0,030.1,023.2,13.4,0000.0,0007.63,0005.76,0005.65
2023-10-29 07:56:00,SystemResetWarning,0835.1,5.01,000.00,021.7,020.4,000.0,030.1,023.2,13.4,0000.0,0007.63,0005.75,0005.64
2023-10-29 07:57:00,SystemResetWarning,0835.1,4.99,000.00,021.7,020.4,000.0,030.1,023.2,13.4,0000.0,0007.63,0005.74,0005.63
2023-10-29 07:58:00,SystemResetWarning,0835.1,5.00,000.00,021.7,020.4,000.0,030.1,023.2,13.4,0000.0,0007.64,0005.74,0005.62
2023-10-29 07:59:00,SystemResetWarning,0835.1,5.00,000.00,021.7,020.3,000.0,030.1,023.1,13.4,0000.0,0007.65,0005.73,0005.60
